Location: Jastrz?bniki
(50.3667°N, 20.3833°E)
Time: 12:25:12
(UTC+00:00)

SL-16 R/B - Pass Details

Date: 05 August 2024
Orbit: 985 x 1006 km, 99.7° (Epoch: 07 September)

Event Time Altitude Azimuth Distance (km) Brightness Sun altitude
Exits shadow 01:44:56 - 179° (S) 3,358 4.9 -12.0°
Reaches altitude 10° 01:46:36 10° 182° (S) 2,737 4.4 -11.8°
Maximum altitude 01:52:36 53° 259° (W) 1,195 2.7 -11.1°
Drops below altitude 10° 01:58:38 10° 336° (NNW) 2,757 5.1 -10.4°
Sets 02:01:12 0° 341° (NNW) 3,711 5.9 -10.1°
